Regional Weather Roundup
Issued by NWS

Home | Current Version | Previous Version | Graphics & Text | Print | Product List | Glossary On
Versions: 1 2 3 4 5 6 7 8 9 10 11 12 13 14 15 16 17 18 19 20 21 22 23 24 25 26 27 28 29 30 31 32 33 34 35 36 37 38 39 40 41 42 43 44 45 46 47 48 49 50
000
ASUS43 KMPX 230610
RWRMN
WEATHER ROUNDUP FOR MINNESOTA
NATIONAL WEATHER SERVICE TWIN CITIES/CHANHASSEN MN
100 AM CDT WED APR 23 2014


NOTE: "FAIR" INDICATES FEW OR NO CLOUDS BELOW 12,000 FEET WITH NO
SIGNIFICANT WEATHER AND/OR OBSTRUCTIONS TO VISIBILITY. N/A MEANS
CURRENT SKY AND/OR WEATHER CONDITIONS ARE NOT AVAILABLE.

MNZ060>063-068>070-230700-
   Twin Cities Metro

CITY           SKY/WX    TMP DP  RH WIND       PRES   REMARKS
TWIN CITIES    FAIR      46  24  42 E10       30.08S
6HR MIN TEMP:  45; 6HR MAX TEMP:  55;

ST PAUL        FAIR      45  25  45 SE8       30.10R
CRYSTAL        FAIR      46  24  42 E7        30.07S
BLAINE         FAIR      43  27  52 E3        30.08S
EDEN PRAIRIE   FAIR      46  24  42 E8        30.06F
6HR MIN TEMP:  46; 6HR MAX TEMP:  57;

LAKEVILLE      FAIR      37  28  70 CALM      30.08S
SOUTH ST PAUL  FAIR      47  24  41 SE3       30.09S
LAKE ELMO      FAIR      36  32  87 CALM      30.10S
$$
MNZ001>005-007-008-013>017-022>024-027-028-230700-
   Northwest Minnesota

CITY           SKY/WX    TMP DP  RH WIND       PRES   REMARKS
BEMIDJI        FAIR      33  22  62 SE6       30.05S WCI  28
HALLOCK        CLOUDY    41  28  60 E12       30.00F
ROSEAU         FAIR      37  25  60 E7        30.05S
WARROAD        FAIR      32  25  74 E5        30.07R WCI  27
THIEF RVR FALL FAIR      41  21  45 E10       30.02F
CROOKSTON      FAIR      45  27  49 SE10      30.00F
FOSSTON        FAIR      43  25  49 SE9       30.02F
DETROIT LAKES  FAIR      45  27  49 SE15      30.00F
MOORHEAD       FAIR      48  32  53 SE9       29.97F
PARK RAPIDS    FAIR      40  24  53 E6        30.03S
$$
MNZ006-009>011-018-025>026-230700-
   North Central Minnesota

CITY           SKY/WX    TMP DP  RH WIND       PRES   REMARKS
BAUDETTE       FAIR      36  22  56 SE5       30.08R
FLAG ISLAND    FAIR      28  21  74 CALM      30.07S
INTL FALLS     FAIR      28  23  81 E3        30.09R
6HR MIN TEMP:  26; 6HR MAX TEMP:  50;

WASKISH        FAIR      37  21  52 E7        30.07S
BIG FORK       FAIR      28  21  74 CALM      30.09S
LONGVILLE      FAIR      28  25  86 CALM      30.07R
GRAND RAPIDS   FAIR      37  19  48 SE5       30.09R
CRANE LAKE     FAIR      21  18  86 CALM      30.13R
ORR            FAIR      27  19  74 CALM      30.08R
COOK           FAIR      27  23  86 CALM      30.10S
$$
MNZ012-019>021-037-230700-
   Northeast Minnesota

CITY           SKY/WX    TMP DP  RH WIND       PRES   REMARKS
DULUTH         FAIR      35  20  54 E6        30.10R WCI  30
6HR MIN TEMP:  31; 6HR MAX TEMP:  51;

ELY            FAIR      27  21  80 CALM      30.10S
HIBBING        FAIR      28  22  78 CALM      30.09R
EVELETH        FAIR      27  23  86 CALM      30.11R
DULUTH HARBOR  FAIR      30  27  86 CALM      30.13R
TWO HARBORS    FAIR      28  21  74 CALM      30.09S
SILVER BAY     FAIR      25  25 100 CALM      30.10S
GRAND MARAIS     N/A     29  26  89 NW3       30.14R
G MARAIS ARPRT FAIR      25  19  80 CALM      30.11R
$$
MNZ029>031-032-039>041-046>048-054>057-064-230700-
   West Central Minnesota

CITY           SKY/WX    TMP DP  RH WIND       PRES   REMARKS
FERGUS FALLS   FAIR      48  23  37 SE15      29.96S
WHEATON        MOCLDY    52  36  54 SE13      29.98S
MORRIS         FAIR      48  34  57 SE13      29.98S
ALEXANDRIA     FAIR      45  27  49 SE15      30.02F
ELBOW LAKE     FAIR      46  31  54 E13       29.99S
WADENA         FAIR      39  27  60 E6        30.03S
GLENWOOD       FAIR      43  30  61 E12       30.02F
APPLETON       FAIR      50  34  53 SE12      29.98S
BENSON         FAIR      48  32  53 SE7       30.00S
ORTONVILLE     FAIR      52  34  50 SE17      29.96S
MADISON        MOCLDY    54  34  47 SE15      29.98S
WILLMAR        FAIR      48  30  49 SE13      30.03F
$$
MNZ033>034-036-042>043-049>051-058-059-230700-
   Central Minnesota

CITY           SKY/WX    TMP DP  RH WIND       PRES   REMARKS
ST CLOUD       FAIR      45  23  42 E6        30.06S
6HR MIN TEMP:  45; 6HR MAX TEMP:  58;

SAUK CENTRE    FAIR      43  28  56 E7        30.04S
PAYNESVILLE    FAIR      46  27  49 E9        30.04S
AITKIN         FAIR      30  27  86 CALM      30.07R
PINE RIVER     FAIR      37  25  60 E3        30.09S
BRAINERD       FAIR      37  25  61 CALM      30.07S
STAPLES        FAIR      37  25  60 CALM      30.05R
LONG PRAIRIE   FAIR      41  28  60 E7        30.05S
LITTLE FALLS   FAIR      43  25  49 E5        30.06S
LITCHFIELD     FAIR      43  32  65 SE8       30.05S
BUFFALO        FAIR      42  26  52 E7        30.07S
MAPLE LAKE     FAIR      43  29  57 E3        30.07S
$$
MNZ037-044-045-052-053-230700-
   East Central Minnesota

CITY           SKY/WX    TMP DP  RH WIND       PRES   REMARKS
PRINCETON      FAIR      41  27  56 CALM      30.08S
MORA           FAIR      32  28  86 CALM      30.10S
CAMBRIDGE      FAIR      41  27  56 E3        30.07S
RUSH CITY      FAIR      39  23  53 SE3       30.10R
MOOSE LAKE     FAIR      32  23  69 NE3       30.08R
HINCKLEY       FAIR      32  27  80 CALM      30.10R
CLOQUET        FAIR      30  19  64 CALM      30.10R
MCGREGOR       FAIR      34  30  86 CALM      30.09R
$$
MNZ071>073-080-081-089-090-097-098-230700-
   Southwest Minnesota

CITY           SKY/WX    TMP DP  RH WIND       PRES   REMARKS
MONTEVIDEO     FAIR      50  34  53 S12       30.00S
GRANITE FALLS  MOCLDY    50  31  48 SE10      30.02R
CANBY          CLOUDY    51  35  52 SE12      29.99R
MARSHALL       MOCLDY    54  30  40 SE16      29.99R
REDWOOD FALLS  FAIR      51  30  44 SE12      30.01F
OLIVIA         MOCLDY    50  32  50 SE10      30.01F
PIPESTONE      FAIR      54  36  50 SE10      29.96R
WINDOM         CLOUDY    52  34  50 SE12      30.01F
WORTHINGTON    FAIR      52  30  43 SE17      30.01F
JACKSON        CLOUDY    50  32  50 SE13      30.02F
TRACY          CLOUDY    53  33  47 SE13G18   30.00S
SLAYTON        CLOUDY    51  32  48 SE18      30.00R
$$
MNZ065>067-074>077-082>085-091>093-230700-
   South Central Minnesota

CITY           SKY/WX    TMP DP  RH WIND       PRES   REMARKS
MANKATO        FAIR      46  28  49 SE10      30.06S
NEW ULM        FAIR      48  30  49 SE8       30.04S
ST JAMES       FAIR      50  34  53 E6        30.06R
FAIRMONT       CLOUDY    50  30  46 SE10      30.06R
GLENCOE        FAIR      43  29  57 E8        30.05S
FARIBAULT      FAIR      48  21  34 E7        30.07F
OWATONNA       FAIR      43  28  56 E8        30.07S
WASECA         FAIR      41  30  65 E10       30.08S
ALBERT LEA     MOCLDY    46  30  53 E7        30.06S
$$
MNZ078>079-086>088-094>096-230700-
   Southeast Minnesota

CITY           SKY/WX    TMP DP  RH WIND       PRES   REMARKS
ROCHESTER      FAIR      41  24  51 E7        30.09S
6HR MIN TEMP:  41; 6HR MAX TEMP:  54;

RED WING       FAIR      34  27  75 CALM      30.09S
STANTON        FAIR      39  27  60 CALM      30.07S
DODGE CENTER   FAIR      43  30  61 E7        30.08S
WINONA         FAIR      39  32  75 CALM      30.12S
AUSTIN         FAIR      45  30  57 E8        30.06F
PRESTON        FAIR      44  26  49 E6        30.09S
$$
ABBREVIATIONS USED IN REMARKS
   TC - TEMPERATURES IN CELSIUS
  WCI - WIND CHILL INDEX
   HX - HEAT INDEX
  VSB - VISIBILITY
$$



USA.gov is the U.S. government's official web portal to all federal, state and local government web resources and services.